|
NORAD ID: 10010 Int'l Code: 1977-036A
Perigee: 1,001.8 km
Apogee: 2,108.3 km
Inclination: 65.9 °
Period: 117.0 minutes
Semi major axis: 7926 km
Launch date: May 19, 1977
Source: Commonwealth of Independent States (former USSR) (CIS)
Two Line Element Set (TLE):
1 10010U 77036A 13141.15067042 -.00000044 00000-0 36358-4 0 1642
2 10010 065.8660 020.0645 0698020 110.7485 256.9700 12.30325096617726
Source:
NASA's NSSDC Master Catalog entry for COSMOS 909
|